FW9314 Weather Reports


time (UTC)temp
C
wind
direction
speed
KPH
gust
KPH
rain 1hr
cm
rain 24hr
cm
rain mn
cm
humidity
%
barometer
mb
20260502130559 5 0 0.0 3.2 0.00 0.00 0.00 83 1022.3
20260502130110 4 0 0.0 3.2 0.00 0.00 0.00 84 1022.4
20260502123557 3 189 0.0 1.6 0.00 0.00 0.00 85 1022.2
20260502123103 3 0 0.0 1.6 0.00 0.00 0.00 85 1022.2
20260502122558 3 0 0.0 3.2 0.00 0.00 0.00 86 1022.1
20260502122059 2 0 0.0 3.2 0.00 0.00 0.00 85 1022.0
20260502121559 2 278 0.0 1.6 0.00 0.00 0.00 85 1022.1
20260502121058 2 277 0.0 1.6 0.00 0.00 0.00 86 1022.0
20260502120559 2 281 0.0 1.6 0.00 0.00 0.00 88 1022.0
20260502115600 2 281 0.0 1.6 0.00 0.00 0.00 89 1021.9
20260502115101 2 273 0.0 1.6 0.00 0.00 0.00 88 1021.9
20260502114602 2 0 0.0 1.6 0.00 0.00 0.00 87 1021.7
20260502114058 2 0 0.0 0.0 0.00 0.00 0.00 88 1021.6
20260502113558 2 0 0.0 0.0 0.00 0.00 0.00 87 1021.5
20260502113059 2 0 0.0 0.0 0.00 0.00 0.00 87 1021.6
20260502112557 2 0 0.0 0.0 0.00 0.00 0.00 88 1021.3
20260502112058 2 0 0.0 0.0 0.00 0.00 0.00 88 1021.3
20260502111557 2 0 0.0 0.0 0.00 0.00 0.00 88 1021.2
20260502111058 2 0 0.0 0.0 0.00 0.00 0.00 88 1021.3
20260502110601 2 0 0.0 1.6 0.00 0.00 0.00 87 1021.3
20260502110104 2 0 0.0 1.6 0.00 0.00 0.00 86 1021.2
20260502105602 2 0 0.0 1.6 0.00 0.00 0.00 85 1021.1
20260502105058 2 0 0.0 1.6 0.00 0.00 0.00 85 1021.2
20260502104559 2 273 0.0 1.6 0.00 0.00 0.00 85 1021.1
20260502104057 3 0 0.0 1.6 0.00 0.00 0.00 86 1021.3
20260502103559 3 0 0.0 0.0 0.00 0.00 0.00 86 1021.2
20260502103100 3 0 0.0 0.0 0.00 0.00 0.00 86 1021.1
20260502102558 3 0 0.0 0.0 0.00 0.00 0.00 85 1021.1
20260502102100 3 0 0.0 0.0 0.00 0.00 0.00 84 1021.3
20260502101557 3 0 0.0 0.0 0.00 0.00 0.00 85 1021.2
20260502101058 3 0 0.0 1.6 0.00 0.00 0.00 85 1021.1
20260502100557 3 0 0.0 1.6 0.00 0.00 0.00 85 1021.0
20260502091101 3 0 0.0 0.0 0.00 0.00 0.00 77 1020.9
20260502090603 3 0 0.0 0.0 0.00 0.00 0.00 78 1020.9
20260502080109 5 0 0.0 1.6 0.00 0.00 0.00 78 1020.6
20260502071058 5 0 0.0 0.0 0.00 0.00 0.00 72 1020.6
20260502070558 5 0 0.0 0.0 0.00 0.00 0.00 71 1020.5
20260502070059 5 0 0.0 0.0 0.00 0.00 0.00 72 1020.6
20260502065558 5 0 0.0 0.0 0.00 0.00 0.00 72 1020.5
20260502065058 5 0 0.0 0.0 0.00 0.00 0.00 73 1020.6
20260502064601 5 0 0.0 0.0 0.00 0.00 0.00 73 1020.7
20260502064059 6 0 0.0 0.0 0.00 0.00 0.00 73 1020.7
20260502063558 6 0 0.0 0.0 0.00 0.00 0.00 73 1020.6
20260502063117 6 0 0.0 0.0 0.00 0.00 0.00 70 1020.6
20260502062557 6 0 0.0 0.0 0.00 0.00 0.00 67 1020.6
20260502062058 6 0 0.0 0.0 0.00 0.00 0.00 66 1020.5
20260502061600 6 0 0.0 0.0 0.00 0.00 0.00 66 1020.5
20260502061057 6 0 0.0 0.0 0.00 0.00 0.00 67 1020.4
20260502060558 6 0 0.0 1.6 0.00 0.00 0.00 67 1020.4
20260502060100 7 0 0.0 1.6 0.00 0.00 0.00 68 1020.4
20260502055559 7 0 0.0 0.0 0.00 0.00 0.00 68 1020.4
20260502055059 7 0 0.0 0.0 0.00 0.00 0.00 69 1020.3
20260502054608 7 0 0.0 0.0 0.00 0.00 0.00 69 1020.4
20260502054058 7 0 0.0 0.0 0.00 0.00 0.00 67 1020.3
20260502053557 7 0 0.0 0.0 0.00 0.00 0.00 66 1020.2
20260502053106 7 0 0.0 1.6 0.00 0.00 0.00 61 1020.1
20260502052558 7 0 0.0 1.6 0.00 0.00 0.00 59 1020.3
20260502052101 7 150 0.0 0.0 0.00 0.00 0.00 58 1020.2
20260502051611 7 0 0.0 1.6 0.00 0.00 0.00 57 1020.2
20260502051058 8 0 0.0 1.6 0.00 0.00 0.00 57 1020.1
20260502050558 8 0 0.0 1.6 0.00 0.00 0.00 56 1020.1
20260502050057 8 0 0.0 3.2 0.00 0.00 0.00 57 1020.1
20260502045558 8 0 0.0 3.2 0.00 0.00 0.00 56 1020.0
20260502045058 8 122 0.0 3.2 0.00 0.00 0.00 57 1020.0
20260502044613 8 0 0.0 3.2 0.00 0.00 0.00 56 1020.1
20260502044058 9 0 0.0 4.8 0.00 0.00 0.00 56 1020.0
20260502043602 9 0 0.0 4.8 0.00 0.00 0.00 55 1020.0
20260502043103 9 46 0.0 3.2 0.00 0.00 0.00 55 1020.0
20260502042557 9 63 0.0 3.2 0.00 0.00 0.00 56 1019.9
20260502042058 9 59 0.0 3.2 0.00 0.00 0.00 56 1019.8
20260502041602 9 0 0.0 1.6 0.00 0.00 0.00 56 1019.9
20260502041057 10 0 0.0 1.6 0.00 0.00 0.00 56 1020.0
20260502040559 10 0 0.0 1.6 0.00 0.00 0.00 56 1020.0
20260502035559 10 0 0.0 1.6 0.00 0.00 0.00 56 1019.9
20260502035058 10 0 0.0 3.2 0.00 0.00 0.00 55 1019.9
20260502034559 10 0 0.0 3.2 0.00 0.00 0.00 55 1019.9
20260502034100 10 0 0.0 1.6 0.00 0.00 0.00 55 1019.8
20260502033557 10 0 0.0 3.2 0.00 0.00 0.00 55 1019.8
20260502033057 11 0 0.0 3.2 0.00 0.00 0.00 54 1019.8
20260502032558 11 49 0.0 3.2 0.00 0.00 0.00 54 1019.7
20260502032058 11 50 0.0 4.8 0.00 0.00 0.00 54 1019.7
20260502031558 11 60 0.0 6.4 0.00 0.00 0.00 53 1019.7
20260502031058 11 0 1.6 6.4 0.00 0.00 0.00 53 1019.6
20260502030558 11 0 0.0 3.2 0.00 0.00 0.00 53 1019.6
20260502030139 11 70 0.0 3.2 0.00 0.00 0.00 53 1019.4
20260502025557 11 47 0.0 3.2 0.00 0.00 0.00 54 1019.4
20260502025101 11 42 0.0 3.2 0.00 0.00 0.00 54 1019.2
20260502024608 11 0 0.0 3.2 0.00 0.00 0.00 56 1019.2
20260502024058 11 0 0.0 3.2 0.00 0.00 0.00 57 1019.0
20260502023558 10 0 0.0 1.6 0.00 0.00 0.00 60 1018.9
20260502023102 10 353 0.0 0.0 0.00 0.00 0.00 60 1018.7
20260502022558 11 0 0.0 0.0 0.00 0.00 0.00 60 1018.6
20260502022058 11 0 0.0 0.0 0.00 0.00 0.00 59 1018.6
20260502021559 11 0 0.0 0.0 0.00 0.00 0.00 59 1018.5
20260502021101 11 0 0.0 0.0 0.00 0.00 0.00 57 1018.3
20260502020604 11 0 0.0 0.0 0.00 0.00 0.00 56 1018.3
20260502020111 11 0 0.0 0.0 0.00 0.00 0.00 55 1018.1
20260502015600 12 0 0.0 0.0 0.00 0.00 0.00 55 1017.9
20260502015058 12 0 0.0 0.0 0.00 0.00 0.00 52 1017.8
20260502014557 12 0 0.0 0.0 0.00 0.00 0.00 52 1017.7
20260502014057 12 0 0.0 0.0 0.00 0.00 0.00 50 1017.7
20260502013558 13 0 0.0 1.6 0.00 0.00 0.00 49 1017.6
20260502013101 13 0 0.0 1.6 0.00 0.00 0.00 50 1017.5
20260502012558 13 0 0.0 0.0 0.00 0.00 0.00 48 1017.5
20260502012057 13 0 0.0 0.0 0.00 0.00 0.00 47 1017.6
20260502011603 14 0 0.0 1.6 0.00 0.00 0.00 47 1017.5
20260502011058 14 0 0.0 1.6 0.00 0.00 0.00 45 1017.4
20260502010557 15 0 0.0 1.6 0.00 0.00 0.00 45 1017.4
20260502010057 15 0 0.0 0.0 0.00 0.00 0.00 44 1017.4
20260502005558 15 0 0.0 1.6 0.00 0.00 0.00 43 1017.4
20260502005058 16 0 0.0 1.6 0.00 0.00 0.00 42 1017.3
20260502004603 16 353 0.0 1.6 0.00 0.00 0.00 40 1017.2
20260502004059 16 0 0.0 6.4 0.00 0.00 0.00 40 1017.0
20260502003557 16 0 1.6 6.4 0.00 0.00 0.00 40 1017.1
20260502003108 16 356 3.2 8.0 0.00 0.00 0.00 38 1016.9
20260502002558 17 166 1.6 8.0 0.00 0.00 0.00 37 1016.9
20260502002058 17 326 1.6 8.0 0.00 0.00 0.00 35 1016.9
20260502001559 17 322 0.0 9.7 0.00 0.00 0.00 36 1016.8
20260502001059 17 0 1.6 9.7 0.00 0.00 0.00 34 1016.8
20260502000557 18 243 3.2 9.7 0.00 0.00 0.00 36 1016.8
20260502000104 18 335 0.0 6.4 0.00 0.00 0.00 35 1016.9
20260501235558 18 6 3.2 6.4 0.00 0.00 0.00 35 1016.7
20260501235058 18 336 1.6 9.7 0.00 0.00 0.00 33 1016.8
20260501234559 18 284 1.6 9.7 0.00 0.00 0.00 35 1016.7
20260501234058 18 8 3.2 9.7 0.00 0.00 0.00 33 1016.6
20260501233558 18 321 3.2 9.7 0.00 0.00 0.00 33 1016.7
20260501233100 18 293 1.6 8.0 0.00 0.00 0.00 34 1016.6
20260501232558 18 239 1.6 14.5 0.00 0.00 0.00 36 1016.6
20260501232058 18 326 1.6 14.5 0.00 0.00 0.00 34 1016.6
20260501231639 18 0 3.2 14.5 0.00 0.00 0.00 34 1016.6
20260501231058 18 320 4.8 12.9 0.00 0.00 0.00 34 1016.6
20260501230557 18 65 1.6 12.9 0.00 0.00 0.00 34 1016.5
20260501230108 18 342 3.2 9.7 0.00 0.00 0.00 32 1016.4
20260501225558 18 262 1.6 12.9 0.00 0.00 0.00 34 1016.4
20260501225059 18 291 3.2 12.9 0.00 0.00 0.00 35 1016.5
20260501224604 18 290 3.2 8.0 0.00 0.00 0.00 34 1016.6
20260501224057 18 22 1.6 8.0 0.00 0.00 0.00 34 1016.4
20260501223558 19 287 3.2 11.3 0.00 0.00 0.00 33 1016.5
20260501223100 19 29 3.2 11.3 0.00 0.00 0.00 33 1016.5
20260501222558 19 264 1.6 9.7 0.00 0.00 0.00 32 1016.5
20260501222059 19 293 3.2 14.5 0.00 0.00 0.00 33 1016.5
20260501221612 19 280 3.2 14.5 0.00 0.00 0.00 34 1016.6
20260501221058 18 321 3.2 14.5 0.00 0.00 0.00 35 1016.5
20260501220559 18 345 4.8 12.9 0.00 0.00 0.00 33 1016.6
20260501220058 18 276 3.2 11.3 0.00 0.00 0.00 34 1016.6
20260501215558 19 214 3.2 8.0 0.00 0.00 0.00 36 1016.6
20260501215058 19 57 3.2 8.0 0.00 0.00 0.00 36 1016.5
20260501214557 19 290 1.6 8.0 0.00 0.00 0.00 38 1016.7
20260501214057 18 12 1.6 9.7 0.00 0.00 0.00 38 1016.7
20260501213558 18 350 3.2 22.5 0.00 0.00 0.00 35 1016.8
20260501213109 19 316 3.2 22.5 0.00 0.00 0.00 38 1017.0
20260501212557 19 300 3.2 11.3 0.00 0.00 0.00 37 1016.8
20260501212057 18 323 3.2 9.7 0.00 0.00 0.00 39 1016.9
20260501211611 18 328 3.2 11.3 0.00 0.00 0.00 41 1017.1
20260501211058 18 292 3.2 11.3 0.00 0.00 0.00 39 1017.3
20260501210558 18 274 1.6 11.3 0.00 0.00 0.00 39 1017.3
20260501205601 18 317 1.6 9.7 0.00 0.00 0.00 41 1017.6
20260501205057 18 252 1.6 4.8 0.00 0.00 0.00 40 1017.6
20260501204602 18 12 0.0 9.7 0.00 0.00 0.00 42 1017.8
20260501204058 18 290 1.6 12.9 0.00 0.00 0.00 40 1018.0
20260501203557 18 271 3.2 12.9 0.00 0.00 0.00 37 1017.9
20260501203107 18 300 3.2 11.3 0.00 0.00 0.00 39 1018.0
20260501202558 18 243 3.2 9.7 0.00 0.00 0.00 40 1018.1
20260501202057 18 231 3.2 12.9 0.00 0.00 0.00 42 1018.1
20260501201607 18 270 1.6 12.9 0.00 0.00 0.00 40 1018.1
20260501201100 18 301 3.2 6.4 0.00 0.00 0.00 42 1018.0
20260501200557 18 300 3.2 9.7 0.00 0.00 0.00 42 1018.3
20260501200104 18 248 1.6 9.7 0.00 0.00 0.00 40 1018.2
20260501195558 18 212 3.2 12.9 0.00 0.00 0.00 42 1018.3
20260501195058 18 351 3.2 12.9 0.00 0.00 0.00 41 1018.3
20260501194607 18 347 1.6 9.7 0.00 0.00 0.00 40 1018.3
20260501194058 18 98 1.6 9.7 0.00 0.00 0.00 42 1018.4
20260501193558 17 237 3.2 11.3 0.00 0.00 0.00 43 1018.4
20260501193058 17 311 3.2 11.3 0.00 0.00 0.00 42 1018.4
20260501192558 17 270 3.2 9.7 0.00 0.00 0.00 41 1018.5
20260501192057 17 273 3.2 9.7 0.00 0.00 0.00 41 1018.4
20260501191600 18 328 3.2 12.9 0.00 0.00 0.00 39 1018.5
20260501191057 18 262 3.2 12.9 0.00 0.00 0.00 39 1018.5
20260501190558 18 320 1.6 9.7 0.00 0.00 0.00 37 1018.4
20260501190057 18 290 1.6 11.3 0.00 0.00 0.00 38 1018.4
20260501185602 18 290 1.6 11.3 0.00 0.00 0.00 39 1018.4
20260501185331 18 37 4.8 11.3 0.00 0.00 0.00 37 1018.4
20260501185119 18 37 4.8 11.3 0.00 0.00 0.00 37 1018.4
20260501184601 18 279 3.2 9.7 0.00 0.00 0.00 39 1018.3
20260501184201 18 289 3.2 12.9 0.00 0.00 0.00 37 1018.3
20260501183558 18 270 4.8 12.9 0.00 0.00 0.00 37 1018.4
20260501183110 18 287 4.8 12.9 0.00 0.00 0.00 41 1018.5
20260501182558 18 278 1.6 8.0 0.00 0.00 0.00 39 1018.4
20260501182059 18 266 0.0 6.4 0.00 0.00 0.00 40 1018.6
20260501181649 18 283 1.6 8.0 0.00 0.00 0.00 37 1018.5
20260501181057 18 0 3.2 9.7 0.00 0.00 0.00 38 1018.7
20260501180557 18 279 3.2 9.7 0.00 0.00 0.00 40 1018.6
20260501180100 18 153 1.6 12.9 0.00 0.00 0.00 40 1018.7
20260501175558 18 283 1.6 12.9 0.00 0.00 0.00 38 1018.7
20260501175056 18 320 3.2 12.9 0.00 0.00 0.00 39 1018.9
20260501174559 18 259 3.2 11.3 0.00 0.00 0.00 36 1019.0
20260501174058 19 340 1.6 6.4 0.00 0.00 0.00 36 1019.0
20260501173601 18 268 0.0 8.0 0.00 0.00 0.00 37 1019.1
20260501173133 18 333 1.6 8.0 0.00 0.00 0.00 41 1019.3
20260501172650 18 264 0.0 6.4 0.00 0.00 0.00 38 1019.2
20260501172058 18 340 1.6 11.3 0.00 0.00 0.00 38 1019.3
20260501171558 18 308 3.2 11.3 0.00 0.00 0.00 35 1019.4
20260501171057 18 266 3.2 11.3 0.00 0.00 0.00 37 1019.5
20260501170557 18 229 1.6 9.7 0.00 0.00 0.00 39 1019.3
20260501170101 18 290 1.6 8.0 0.00 0.00 0.00 39 1019.4
20260501165558 18 251 0.0 8.0 0.00 0.00 0.00 39 1019.4
20260501165057 17 294 1.6 6.4 0.00 0.00 0.00 41 1019.5
20260501164556 17 173 1.6 8.0 0.00 0.00 0.00 41 1019.5
20260501164157 17 319 1.6 8.0 0.00 0.00 0.00 42 1019.3
20260501163558 17 312 1.6 6.4 0.00 0.00 0.00 44 1019.5
20260501163225 17 91 0.0 4.8 0.00 0.00 0.00 40 1019.4
20260501162557 17 358 0.0 6.4 0.00 0.00 0.00 38 1019.5
20260501162058 17 246 1.6 6.4 0.00 0.00 0.00 39 1019.5
20260501161601 17 290 1.6 6.4 0.00 0.00 0.00 40 1019.5
20260501161057 17 0 1.6 6.4 0.00 0.00 0.00 42 1019.4
20260501160557 17 277 0.0 6.4 0.00 0.00 0.00 40 1019.4
20260501160057 16 236 1.6 6.4 0.00 0.00 0.00 40 1019.4
20260501155557 16 302 0.0 6.4 0.00 0.00 0.00 44 1019.4
20260501155058 16 226 0.0 6.4 0.00 0.00 0.00 46 1019.5
20260501154633 16 257 1.6 6.4 0.00 0.00 0.00 45 1019.5
20260501154057 16 330 1.6 6.4 0.00 0.00 0.00 47 1019.6
20260501153557 15 239 1.6 6.4 0.00 0.00 0.00 50 1019.5
20260501153058 15 267 0.0 4.8 0.00 0.00 0.00 55 1019.6
20260501152559 15 195 1.6 9.7 0.00 0.00 0.00 56 1019.5
20260501152057 15 233 1.6 9.7 0.00 0.00 0.00 55 1019.6
20260501151603 15 249 3.2 9.7 0.00 0.00 0.00 55 1019.6
20260501151057 15 241 1.6 6.4 0.00 0.00 0.00 59 1019.7
20260501150600 15 198 3.2 6.4 0.00 0.00 0.00 57 1019.6
20260501150057 14 297 1.6 4.8 0.00 0.00 0.00 52 1019.6
20260501145601 14 0 0.0 4.8 0.00 0.00 0.00 56 1019.5
20260501145058 13 308 0.0 6.4 0.00 0.00 0.00 61 1019.5
20260501144557 13 297 0.0 6.4 0.00 0.00 0.00 60 1019.4
20260501144057 12 287 0.0 3.2 0.00 0.00 0.00 60 1019.4
20260501143557 12 262 1.6 9.7 0.00 0.00 0.00 66 1019.4